Weather History for Baker, MT

Change the Weather History Date:

Tuesday, December 11, 2012

  Actual Average Record
Temperature  
Mean Temperature 26 °F -  
Max Temperature 35 °F -4 °F 55 °F (2004)
Min Temperature 16 °F 12 °F -18 °F (2000)
Degree Days  
Heating Degree Days 40    
Moisture  
Dew Point 17 °F    
Average Humidity 66    
Maximum Humidity 81    
Minimum Humidity 56    
Precipitation  
Precipitation 0.00 in - - ()
Sea Level Pressure  
Sea Level Pressure 29.73 in    
Wind  
Wind Speed 8 mph (SW)    
Max Wind Speed 14 mph    
Max Gust Speed -    
Visibility 10 miles    
Events      
Averages and records for this station are not official NWS values.
T = Trace of Precipitation, MM = Missing Value Source: NWS Daily Summary

Daily Weather History Graph

Daily Weather History Graph

Search for Another Location

Airport:

Trip Planner

Search our weather history database for the weather conditions in past years. The results will help you decide how hot, cold, wet, or windy it might be!

Date:

Astronomy

Dec. 11, 2012 Rise Set
Actual Time 7:30 AM MST 4:10 PM MST
Civil Twilight 6:55 AM MST 4:45 PM MST
Nautical Twilight 6:17 AM MST 5:23 PM MST
Astronomical Twilight 5:41 AM MST 5:59 PM MST
Moon 5:25 AM MST (12/11) 2:54 PM MST (12/11)
Length of Visible Light 9h 49m
Length of Day
8h 39m
Waning Crescent, 4% of the Moon is Illuminated
Dec 11
Waning Crescent
Dec 13
New
Dec 19
First Quarter
Dec 28
Full
Jan 4
Last Quarter

Hourly Weather History & Observations

Time (MST) Temp. Windchill Dew Point Humidity Pressure Visibility Wind Dir Wind Speed Gust Speed Precip Events Conditions
12:51 AM 19.0 °F 8.2 °F 12.9 °F 77% 29.89 in 10.0 mi West 9.2 mph - N/A   Clear
1:51 AM 18.0 °F 11.1 °F 12.0 °F 78% 29.88 in 10.0 mi WNW 4.6 mph - N/A   Overcast
2:51 AM 16.0 °F 4.4 °F 10.0 °F 77% 29.88 in 10.0 mi West 9.2 mph - N/A   Partly Cloudy
3:51 AM 18.0 °F 6.9 °F 12.0 °F 78% 29.88 in 10.0 mi West 9.2 mph - N/A   Mostly Cloudy
4:51 AM 19.0 °F - 14.0 °F 81% 29.87 in 10.0 mi Calm Calm - N/A   Overcast
5:51 AM 19.9 °F 9.3 °F 14.0 °F 78% 29.86 in 10.0 mi WSW 9.2 mph - N/A   Mostly Cloudy
6:51 AM 18.0 °F - 12.0 °F 78% 29.85 in 10.0 mi Calm Calm - N/A   Clear
7:51 AM 19.9 °F 7.9 °F 12.0 °F 71% 29.82 in 10.0 mi SW 11.5 mph - N/A   Clear
8:51 AM 23.0 °F 13.1 °F 12.9 °F 65% 29.81 in 10.0 mi SW 9.2 mph - N/A   Clear
9:51 AM 28.0 °F 17.0 °F 16.0 °F 61% 29.79 in 10.0 mi SW 13.8 mph - N/A   Clear
10:51 AM - - - N/A% 29.67 in - North - - N/A   Clear
11:51 AM 30.9 °F 27.5 °F 18.0 °F 59% 29.73 in 10.0 mi WSW 3.5 mph - N/A   Clear
12:51 PM 33.1 °F 26.9 °F 19.0 °F 56% 29.70 in 10.0 mi SW 6.9 mph - N/A   Scattered Clouds
1:51 PM 33.1 °F 25.5 °F 19.0 °F 56% 29.68 in 10.0 mi SSW 9.2 mph - N/A   Overcast
2:51 PM 33.1 °F 24.9 °F 21.0 °F 61% 29.65 in 10.0 mi South 10.4 mph - N/A   Overcast
3:51 PM 34.0 °F 26.6 °F 19.9 °F 56% 29.65 in 10.0 mi SSW 9.2 mph - N/A   Overcast
4:51 PM 30.9 °F 22.2 °F 19.9 °F 64% 29.62 in 10.0 mi South 10.4 mph - N/A   Overcast
5:51 PM 28.9 °F 18.6 °F 19.0 °F 67% 29.61 in 10.0 mi South 12.7 mph - N/A   Clear
6:51 PM 34.0 °F 25.0 °F 19.9 °F 56% 29.60 in 10.0 mi SSW 12.7 mph - N/A   Overcast
7:51 PM 35.1 °F 27.9 °F 21.0 °F 57% 29.60 in 10.0 mi WSW 9.2 mph - N/A   Overcast
9:51 PM 35.1 °F 27.4 °F 21.9 °F 59% 29.58 in 10.0 mi WSW 10.4 mph - N/A   Overcast
10:51 PM 34.0 °F 27.2 °F 21.9 °F 61% 29.53 in 10.0 mi West 8.1 mph - N/A   Mostly Cloudy
11:51 PM 33.1 °F - 21.9 °F 64% 29.60 in 10.0 mi Calm Calm - N/A   Overcast